When you browse on this site, cookies collect data to enhance your experience and personalize the content and advertising you see.
Visit our Privacy Policy to learn more. By continuing to use the site, you agree to this use of cookies and data.
  • In Slovakia
  • List of Countries
  • For 7 days
  • Water Temperature
  • Weather Map
  • Weather Widgets
  • user-avatar
    Login

    Hourly Weather Ko Samui

    Today, 6 June, Saturday

    Time Temperature Precipitation Wind Pressure Humidity
    00:00 +28°C° 0.5 mm 6 mps 743 mmHg 81%
    01:00 +28°C° 0 mm 5 mps 743 mmHg 81%
    02:00 +28°C° 0.1 mm 5 mps 743 mmHg 81%
    03:00 +27°C° 0.1 mm 5 mps 742 mmHg 81%
    04:00 +27°C° 0.1 mm 5 mps 742 mmHg 81%
    05:00 +27°C° 0.2 mm 5 mps 742 mmHg 81%
    06:00 +28°C° 0.2 mm 5 mps 742 mmHg 80%
    07:00 +28°C° 0 mm 5 mps 743 mmHg 77%
    08:00 +30°C° 0 mm 5 mps 743 mmHg 72%
    09:00 +32°C° 0 mm 5 mps 743 mmHg 67%
    10:00 +33°C° 0 mm 5 mps 744 mmHg 62%
    11:00 +33°C° 0 mm 4 mps 743 mmHg 62%
    12:00 +34°C° 0 mm 4 mps 743 mmHg 61%
    13:00 +34°C° 0 mm 4 mps 743 mmHg 60%
    14:00 +34°C° 0.5 mm 3 mps 742 mmHg 61%
    15:00 +33°C° 0.5 mm 3 mps 742 mmHg 63%
    16:00 +33°C° 0.5 mm 3 mps 741 mmHg 64%
    17:00 +31°C° 0.5 mm 2 mps 741 mmHg 68%
    18:00 +30°C° 0.5 mm 2 mps 742 mmHg 71%
    19:00 +30°C° 0.5 mm 2 mps 742 mmHg 74%
    20:00 +29°C° 0 mm 4 mps 743 mmHg 75%
    21:00 +29°C° 0 mm 6 mps 743 mmHg 77%
    22:00 +28°C° 0 mm 9 mps 743 mmHg 78%
    23:00 +28°C° 0 mm 9 mps 743 mmHg 79%

    Tomorrow, 7 June, Sunday

    Time Temperature Precipitation Wind Pressure Humidity
    00:00 +28°C° 0 mm 9 mps 743 mmHg 81%
    01:00 +28°C° 0 mm 9 mps 743 mmHg 82%
    02:00 +27°C° 0 mm 9 mps 743 mmHg 82%
    03:00 +27°C° 0 mm 8 mps 742 mmHg 83%
    04:00 +27°C° 0 mm 8 mps 742 mmHg 83%
    05:00 +28°C° 0 mm 7 mps 742 mmHg 82%
    06:00 +28°C° 0 mm 6 mps 742 mmHg 81%
    07:00 +28°C° 0 mm 6 mps 742 mmHg 80%
    08:00 +29°C° 0 mm 5 mps 743 mmHg 75%
    09:00 +30°C° 0 mm 4 mps 743 mmHg 70%
    10:00 +31°C° 0 mm 3 mps 743 mmHg 65%
    11:00 +31°C° 0 mm 3 mps 743 mmHg 66%
    12:00 +31°C° 0 mm 3 mps 743 mmHg 66%
    13:00 +33°C° 0 mm 3 mps 742 mmHg 67%
    14:00 +31°C° 0.4 mm 3 mps 742 mmHg 68%
    15:00 +31°C° 0.4 mm 3 mps 741 mmHg 70%
    16:00 +31°C° 0.4 mm 3 mps 741 mmHg 72%
    17:00 +30°C° 0.4 mm 3 mps 741 mmHg 75%
    18:00 +30°C° 0.4 mm 4 mps 741 mmHg 77%
    19:00 +29°C° 0.4 mm 5 mps 742 mmHg 79%
    20:00 +29°C° 0 mm 6 mps 742 mmHg 80%
    21:00 +28°C° 0 mm 7 mps 743 mmHg 80%
    22:00 +28°C° 0 mm 8 mps 743 mmHg 81%
    23:00 +28°C° 0 mm 8 mps 743 mmHg 81%

    Day after tomorrow, 8 June, Monday

    Time Temperature Precipitation Wind Pressure Humidity
    00:00 +27°C° 0 mm 8 mps 743 mmHg 82%
    01:00 +27°C° 0 mm 8 mps 742 mmHg 82%
    02:00 +27°C° 0 mm 8 mps 742 mmHg 82%
    03:00 +27°C° 0 mm 7 mps 741 mmHg 81%
    04:00 +27°C° 0 mm 7 mps 741 mmHg 81%
    05:00 +27°C° 0 mm 7 mps 741 mmHg 81%
    06:00 +27°C° 0 mm 7 mps 742 mmHg 82%
    07:00 +27°C° 0 mm 6 mps 742 mmHg 83%
    08:00 +29°C° 0 mm 6 mps 743 mmHg 77%
    09:00 +30°C° 0 mm 5 mps 743 mmHg 71%
    10:00 +33°C° 0 mm 4 mps 743 mmHg 65%
    11:00 +33°C° 0 mm 4 mps 743 mmHg 64%
    12:00 +33°C° 0 mm 3 mps 742 mmHg 64%
    13:00 +34°C° 0 mm 3 mps 742 mmHg 63%
    14:00 +34°C° 0 mm 3 mps 741 mmHg 62%
    15:00 +34°C° 0 mm 3 mps 741 mmHg 61%
    16:00 +34°C° 0 mm 2 mps 740 mmHg 60%
    17:00 +32°C° 0.6 mm 2 mps 741 mmHg 66%
    18:00 +31°C° 0.6 mm 2 mps 741 mmHg 72%
    19:00 +29°C° 0.6 mm 2 mps 742 mmHg 77%
    20:00 +29°C° 0 mm 3 mps 742 mmHg 78%
    21:00 +29°C° 0 mm 3 mps 743 mmHg 79%
    22:00 +29°C° 0 mm 3 mps 743 mmHg 80%
    23:00 +28°C° 0 mm 3 mps 743 mmHg 80%

    9 June, Tuesday

    Time Temperature Precipitation Wind Pressure Humidity
    00:00 +28°C° 0 mm 3 mps 742 mmHg 81%
    01:00 +28°C° 0 mm 3 mps 742 mmHg 82%
    02:00 +28°C° 0 mm 3 mps 742 mmHg 82%
    03:00 +28°C° 0 mm 4 mps 741 mmHg 82%
    04:00 +28°C° 0 mm 4 mps 741 mmHg 81%
    05:00 +28°C° 0 mm 4 mps 742 mmHg 81%
    06:00 +28°C° 0 mm 3 mps 742 mmHg 81%
    07:00 +28°C° 0 mm 3 mps 742 mmHg 80%
    08:00 +29°C° 0.1 mm 3 mps 742 mmHg 74%
    09:00 +31°C° 0.1 mm 3 mps 743 mmHg 68%
    10:00 +33°C° 0.1 mm 3 mps 743 mmHg 62%
    11:00 +32°C° 0 mm 2 mps 743 mmHg 63%
    12:00 +32°C° 0 mm 2 mps 742 mmHg 63%
    13:00 +32°C° 0 mm 2 mps 742 mmHg 64%
    14:00 +32°C° 0.1 mm 1 mps 741 mmHg 64%
    15:00 +32°C° 0.1 mm 1 mps 741 mmHg 64%
    16:00 +32°C° 0.1 mm 1 mps 740 mmHg 65%
    17:00 +31°C° 0.2 mm 1 mps 741 mmHg 69%
    18:00 +31°C° 0.2 mm 2 mps 741 mmHg 73%
    19:00 +30°C° 0.2 mm 2 mps 741 mmHg 77%
    20:00 +30°C° 0.1 mm 3 mps 742 mmHg 77%
    21:00 +29°C° 0.1 mm 3 mps 742 mmHg 78%
    22:00 +29°C° 0.1 mm 3 mps 743 mmHg 78%
    23:00 +29°C° 0 mm 3 mps 743 mmHg 79%

    10 June, Wednesday

    Time Temperature Precipitation Wind Pressure Humidity
    00:00 +28°C° 0 mm 3 mps 742 mmHg 80%
    01:00 +28°C° 0 mm 3 mps 742 mmHg 80%
    02:00 +28°C° 0 mm 3 mps 742 mmHg 81%
    03:00 +28°C° 0 mm 3 mps 742 mmHg 81%
    04:00 +28°C° 0 mm 3 mps 742 mmHg 81%
    05:00 +28°C° 0.4 mm 3 mps 742 mmHg 81%
    06:00 +28°C° 0.4 mm 2 mps 742 mmHg 80%
    07:00 +28°C° 0.4 mm 2 mps 742 mmHg 79%
    08:00 +29°C° 0.5 mm 2 mps 743 mmHg 74%
    09:00 +31°C° 0.5 mm 2 mps 743 mmHg 68%
    10:00 +32°C° 0.5 mm 2 mps 743 mmHg 63%
    11:00 +32°C° 0 mm 2 mps 743 mmHg 61%
    12:00 +33°C° 0 mm 1 mps 742 mmHg 60%
    13:00 +33°C° 0 mm 1 mps 742 mmHg 58%
    14:00 +33°C° 0 mm 1 mps 742 mmHg 58%
    15:00 +34°C° 0 mm 2 mps 741 mmHg 58%
    16:00 +34°C° 0 mm 2 mps 741 mmHg 58%
    17:00 +32°C° 0.1 mm 2 mps 741 mmHg 64%
    18:00 +31°C° 0.1 mm 2 mps 741 mmHg 70%
    19:00 +30°C° 0.1 mm 3 mps 742 mmHg 76%
    20:00 +29°C° 0.2 mm 2 mps 742 mmHg 76%
    21:00 +29°C° 0.2 mm 2 mps 743 mmHg 76%
    22:00 +29°C° 0.2 mm 1 mps 744 mmHg 76%
    23:00 +29°C° 0 mm 1 mps 743 mmHg 77%

    11 June, Thursday

    Time Temperature Precipitation Wind Pressure Humidity
    00:00 +29°C° 0 mm 1 mps 743 mmHg 78%
    01:00 +28°C° 0 mm 1 mps 743 mmHg 79%
    02:00 +28°C° 0 mm 1 mps 742 mmHg 79%
    03:00 +28°C° 0 mm 1 mps 742 mmHg 79%
    04:00 +27°C° 0 mm 1 mps 742 mmHg 80%
    05:00 +28°C° 0.1 mm 1 mps 742 mmHg 79%
    06:00 +28°C° 0.1 mm 1 mps 742 mmHg 79%
    07:00 +28°C° 0.1 mm 1 mps 742 mmHg 78%
    08:00 +29°C° 0.5 mm 1 mps 743 mmHg 73%
    09:00 +30°C° 0.5 mm 2 mps 743 mmHg 69%
    10:00 +31°C° 0.5 mm 2 mps 743 mmHg 64%
    11:00 +32°C° 0.1 mm 2 mps 743 mmHg 63%
    12:00 +32°C° 0.1 mm 1 mps 742 mmHg 63%
    13:00 +32°C° 0.1 mm 1 mps 742 mmHg 62%
    14:00 +32°C° 0 mm 1 mps 741 mmHg 65%
    15:00 +31°C° 0 mm 1 mps 741 mmHg 69%
    16:00 +31°C° 0 mm 1 mps 741 mmHg 72%
    17:00 +30°C° 0.3 mm 2 mps 741 mmHg 74%
    18:00 +30°C° 0.3 mm 2 mps 741 mmHg 76%
    19:00 +29°C° 0.3 mm 3 mps 741 mmHg 79%
    20:00 +29°C° 1.1 mm 3 mps 742 mmHg 78%
    21:00 +29°C° 1.1 mm 2 mps 742 mmHg 78%
    22:00 +29°C° 1.1 mm 2 mps 743 mmHg 78%
    23:00 +28°C° 0.5 mm 2 mps 743 mmHg 78%
    Show more